sat.trackr.live / text

‹ back to catalog

STARLINK-2620

NORAD 48453 · 2021-040AB

PAYLOAD ACTIVE UNKNOWN

§ Identity

Operator
Country
US
Launch date
2021-05-09
Launch site
AFETR
Launch vehicle
Mass (kg)
RCS (m²)

Purposes: comms

External: N2YO · Heavens-Above · Gunter

§ Orbital elements

Epoch: 2026-09-19T20:00:58.446720Z

Period
94.01 min
Inclination
53.1624°
Eccentricity
0.0001173
Mean motion
15.31707120 rev/d
Perigee alt
469.9 km
Apogee alt
471.5 km
Semi-major
6,848.9 km
B*
3.9454e-6
RAAN
354.5899°
Arg perigee
109.7461°
Mean anomaly
250.3667°
Rev number
29,643

§ Raw data

STARLINK-26201 48453U 21040AB  26262.83400980 -.00000243  00000+0  39454-5 0  99902 48453  53.1624 354.5899 0001173 109.7461 250.3667 15.31707120296430

JSON: /api/v1/satellites/48453 · /tle

For live sub-satellite position, see the globe view (requires WebGL).

§ Visibility from observer

Set your observer location to see the next 7 days of passes ≥ 10°. The values pass through the URL so the page stays shareable.

No JS? Fill the form by hand. The geolocation button needs JavaScript.